Location: Azul
(36.7830°S, 59.8500°W)
Time: 09:12:46
(UTC-03:00)

ISS - Pass Details

Date: 04 December 2019
Orbit: 411 x 421 km, 51.6° (Epoch: 11 December)

Event Time Altitude Azimuth Distance (km) Brightness Sun altitude
Exits shadow 04:14:25 - 248° (WSW) 1,895 -0.7 -13.8°
Reaches altitude 10° 04:15:58 10° 229° (SW) 1,525 -1.0 -13.5°
Maximum altitude 04:17:32 13° 201° (SSW) 1,376 -0.9 -13.3°
Drops below altitude 10° 04:19:07 10° 174° (S) 1,526 -0.2 -13.1°
Sets 04:22:14 0° 143° (SE) 2,393 1.9 -12.6°
